Terminal Aerodrome Forecast
Issued by NWS Central Illinois

Home | Current Version | Previous Version | Text Only | Print | Product List | Glossary On
Versions: 1 2 3 4 5 6 7 8 9 10 11 12 13 14 15 16 17 18 19 20 21 22 23 24 25 26 27 28 29
000
FTUS43 KILX 290527
TAFSPI
TAF
KSPI 290527Z 2906/3006 08009KT 5SM BR VCSH OVC015
     FM290800 06015KT 3SM -SHRA BR VCTS OVC007CB
     FM291400 06013G19KT 3SM TSRA BR OVC004CB
     FM292000 10013G21KT 3SM SHRA BR VCTS BKN007 OVC015CB
     FM300100 05010KT 2SM +SHRA VCTS OVC008CB=

USA.gov is the U.S. government's official web portal to all federal, state and local government web resources and services.